Find Starlink 33734

NORAD ID: 63367 Int'l Des: 2025-063 Owner: SPXS Country: US Constellation: starlink operational
LEOCIRCULAR

当前视图

正在加载3D地球...

About Starlink 33734

Starlink 33734 (NORAD 63367) is a starlink constellation satellite (v2 mini) launched Mar 26, 2025 by SPXS of US. It operates in LEO, CIRCULAR orbit with a mass of 575.00 kg.

即将过境

Passes for default location (London). Set your location on the main map for personalized predictions.

高度历史

Loading altitude history...

两行轨道根数

1 63367U 25063E 26255.28178894 .00006298 00000-0 19735-3 0 9991
2 63367 53.1559 273.8382 0001191 89.4025 270.7114 15.34400950 83169
Epoch: Sep 12, 2026 • Age: 14 hours

当前状态

高度 464.4 km
远地点 / 近地点 N/A
速度 7.64 km/s
星下点 -4.49°S, 36.24°W
发射日期 Mar 26, 2025
运行时间 1.4 years
类型 internet

技术详情

分类 Payload
质量 575.00 kg
干质量 530.00 kg
总质量 575.00 kg
长度 0.30 m
直径 4.10 m
跨度 29.00 m
形状 Box + pan
制造商 SPXS
平台类型 Starlink V2MO
阶段状态 In Orbit
所有者/国家 SPXS/US

Most Searched